Ludington, MI

1:20 PM EST on December 06, 2019 (GMT -0500)
Mason County

Weather History for KLDM - May, 2019

Change the Weather History Date:

Friday, May 31, 2019

  Actual Average Record
Temperature  
Mean Temperature 60 °F -  
Max Temperature 75 °F 70 °F 90 °F (1988)
Min Temperature 45 °F 48 °F 35 °F (1990)
Degree Days  
Heating Degree Days 5    
Growing Degree Days 10 (Base 50)    
Moisture  
Dew Point 53 °F    
Average Humidity 78    
Maximum Humidity 98    
Minimum Humidity 52    
Precipitation  
Precipitation 0.03 in - - ()
Sea Level Pressure  
Sea Level Pressure 29.78 in    
Wind  
Wind Speed 5 mph (SW)    
Max Wind Speed 22 mph    
Max Gust Speed 30 mph    
Visibility 9 miles    
Events Rain    
Averages and records for this station are not official NWS values.
T = Trace of Precipitation, MM = Missing Value Source: NWS Daily Summary

Daily Weather History Graph

Daily Weather History Graph

Search for Another Location

Airport or City:

Astronomy

May. 31, 2019 Rise Set
Actual Time 6:06 AM EDT 9:20 PM EDT
Civil Twilight 5:31 AM EDT 9:55 PM EDT
Nautical Twilight 4:45 AM EDT 10:41 PM EDT
Astronomical Twilight 3:50 AM EDT 11:37 PM EDT
Moon 4:49 AM EDT (5/31) 6:21 PM EDT (5/31)
Length of Visible Light 16h 24m
Length of Day
15h 13m
Waning Crescent, 9% of the Moon is Illuminated
May 31
Waning Crescent
Jun 3
New
Jun 10
First Quarter
Jun 17
Full
Jun 25
Last Quarter

Hourly Weather History & Observations

Time (EDT) Temp. Dew Point Humidity Pressure Visibility Wind Dir Wind Speed Gust Speed Precip Events Conditions
12:15 AM 49.3 °F 48.6 °F 97% 29.82 in 7.0 mi Calm Calm - N/A   Clear
12:16 AM 49.1 °F 48.4 °F 97% 29.82 in 5.0 mi Calm Calm - N/A   Clear
12:35 AM 48.4 °F 47.7 °F 97% 29.82 in 7.0 mi Calm Calm - N/A   Clear
12:55 AM 47.8 °F 47.1 °F 97% 29.82 in 4.0 mi Calm Calm - N/A   Clear
1:15 AM 48.0 °F 47.3 °F 97% 29.82 in 7.0 mi Calm Calm - N/A   Clear
1:16 AM 48.0 °F 47.3 °F 97% 29.82 in 7.0 mi Calm Calm - N/A   Clear
1:35 AM 47.7 °F 46.9 °F 97% 29.82 in 7.0 mi Calm Calm - N/A   Clear
1:36 AM 47.5 °F 46.8 °F 97% 29.82 in 4.0 mi Calm Calm - N/A   Clear
1:55 AM 48.0 °F 47.3 °F 97% 29.82 in 7.0 mi Calm Calm - N/A   Clear
2:15 AM 46.6 °F 45.9 °F 97% 29.82 in 7.0 mi Calm Calm - N/A   Clear
2:35 AM 46.6 °F 45.7 °F 97% 29.82 in 10.0 mi Calm Calm - N/A   Clear
2:55 AM 46.4 °F 45.7 °F 97% 29.82 in 10.0 mi Calm Calm - N/A   Clear
2:56 AM 46.4 °F 45.7 °F 97% 29.82 in 10.0 mi Calm Calm - N/A   Clear
3:15 AM 45.9 °F 45.3 °F 98% 29.81 in 10.0 mi Calm Calm - N/A   Clear
3:16 AM 45.9 °F 45.1 °F 97% 29.81 in 10.0 mi Calm Calm - N/A   Clear
3:35 AM 45.7 °F 45.0 °F 97% 29.81 in 10.0 mi Calm Calm - N/A   Clear
3:36 AM 45.9 °F 45.3 °F 98% 29.81 in 10.0 mi Calm Calm - N/A   Clear
3:55 AM 46.6 °F 45.9 °F 97% 29.81 in 10.0 mi Calm Calm - N/A   Clear
4:15 AM 46.4 °F 45.7 °F 97% 29.81 in 10.0 mi Calm Calm - N/A   Clear
4:35 AM 46.4 °F 45.7 °F 97% 29.81 in 10.0 mi Calm Calm - N/A   Clear
4:55 AM 47.1 °F 46.4 °F 97% 29.81 in 4.0 mi Calm Calm - N/A   Clear
4:56 AM 47.5 °F 46.8 °F 97% 29.81 in 4.0 mi Calm Calm - N/A   Clear
5:15 AM 48.0 °F 47.3 °F 97% 29.82 in 10.0 mi Calm Calm - N/A   Clear
5:16 AM 48.2 °F 47.3 °F 97% 29.82 in 10.0 mi Calm Calm - N/A   Clear
5:35 AM 46.0 °F 45.3 °F 97% 29.81 in 2.5 mi Calm Calm - N/A   Clear
5:55 AM 47.3 °F 46.6 °F 97% 29.81 in 7.0 mi Calm Calm - N/A   Clear
6:15 AM 47.3 °F 46.6 °F 97% 29.81 in 10.0 mi Calm Calm - N/A   Scattered Clouds
6:16 AM 47.5 °F 46.8 °F 97% 29.81 in 10.0 mi Calm Calm - N/A   Scattered Clouds
6:35 AM 46.9 °F 46.2 °F 97% 29.81 in 10.0 mi Calm Calm - N/A   Mostly Cloudy
6:36 AM 47.1 °F 46.2 °F 97% 29.81 in 10.0 mi Calm Calm - N/A   Mostly Cloudy
6:55 AM 47.3 °F 46.6 °F 97% 29.81 in 10.0 mi Calm Calm - N/A   Scattered Clouds
7:15 AM 49.6 °F 48.9 °F 97% 29.82 in 10.0 mi Calm Calm - N/A   Mostly Cloudy
7:35 AM 52.0 °F 51.1 °F 97% 29.82 in 10.0 mi Calm Calm - N/A   Overcast
7:36 AM 52.2 °F 51.3 °F 97% 29.82 in 10.0 mi Calm Calm - N/A   Overcast
7:55 AM 55.4 °F 53.8 °F 94% 29.82 in 10.0 mi WSW 5.8 mph - N/A   Mostly Cloudy
7:56 AM 55.4 °F 53.6 °F 94% 29.82 in 10.0 mi WSW 4.6 mph - N/A   Mostly Cloudy
8:15 AM 54.0 °F 52.0 °F 93% 29.81 in 10.0 mi WSW 6.9 mph - N/A   Mostly Cloudy
8:35 AM 55.6 °F 52.2 °F 88% 29.82 in 7.0 mi WSW 10.4 mph - N/A   Mostly Cloudy
8:55 AM 56.7 °F 52.7 °F 87% 29.81 in 7.0 mi WSW 6.9 mph - N/A   Scattered Clouds
8:56 AM 56.7 °F 52.7 °F 87% 29.81 in 7.0 mi WSW 6.9 mph - N/A   Scattered Clouds
9:15 AM 59.0 °F 53.8 °F 83% 29.81 in 7.0 mi WSW 8.1 mph - N/A   Clear
9:16 AM 59.0 °F 53.8 °F 83% 29.81 in 7.0 mi WSW 8.1 mph - N/A   Clear
9:35 AM 59.5 °F 53.8 °F 81% 29.81 in 10.0 mi SW 8.1 mph - N/A   Clear
9:36 AM 59.5 °F 53.8 °F 81% 29.81 in 10.0 mi WSW 8.1 mph - N/A   Clear
9:55 AM 60.6 °F 54.7 °F 81% 29.81 in 10.0 mi WSW 12.7 mph 17.3 mph N/A   Clear
10:15 AM 61.0 °F 54.3 °F 79% 29.81 in 10.0 mi WSW 11.5 mph 17.3 mph N/A   Clear
10:16 AM 61.0 °F 54.1 °F 78% 29.82 in 10.0 mi WSW 11.5 mph 17.3 mph N/A   Clear
10:35 AM 61.3 °F 54.0 °F 77% 29.82 in 10.0 mi WSW 12.7 mph 18.4 mph N/A   Clear
10:37 AM 61.0 °F 53.8 °F 77% 29.82 in 10.0 mi WSW 12.7 mph - N/A   Clear
10:55 AM 61.5 °F 54.0 °F 76% 29.82 in 10.0 mi WSW 10.4 mph - N/A   Clear
10:56 AM 61.7 °F 54.0 °F 76% 29.82 in 10.0 mi SW 10.4 mph - N/A   Clear
11:15 AM 63.0 °F 54.5 °F 74% 29.82 in 10.0 mi WSW 9.2 mph - N/A   Clear
11:16 AM 63.0 °F 54.5 °F 74% 29.82 in 10.0 mi WSW 10.4 mph - N/A   Clear
11:35 AM 63.7 °F 55.0 °F 73% 29.83 in 10.0 mi WSW 8.1 mph - N/A   Clear
11:37 AM 64.0 °F 55.0 °F 73% 29.83 in 10.0 mi WSW 9.2 mph - N/A   Clear
11:55 AM 66.4 °F 55.8 °F 69% 29.82 in 10.0 mi SW 11.5 mph - N/A   Clear
12:15 PM 67.6 °F 54.7 °F 63% 29.81 in 10.0 mi WSW 11.5 mph 16.1 mph N/A   Clear
12:35 PM 70.2 °F 56.7 °F 62% 29.81 in 10.0 mi SW 11.5 mph 17.3 mph N/A   Clear
12:36 PM 70.2 °F 56.7 °F 62% 29.81 in 10.0 mi WSW 12.7 mph 17.3 mph N/A   Clear
12:55 PM 70.5 °F 57.6 °F 63% 29.81 in 10.0 mi SW 12.7 mph 18.4 mph N/A   Clear
1:15 PM 71.6 °F 58.1 °F 62% 29.80 in 10.0 mi SW 11.5 mph - N/A   Clear
1:16 PM 71.6 °F 58.1 °F 62% 29.80 in 10.0 mi SW 13.8 mph 19.6 mph N/A   Clear
1:35 PM 72.7 °F 57.6 °F 59% 29.79 in 10.0 mi SW 15.0 mph 20.7 mph N/A   Clear
1:56 PM 72.5 °F 56.7 °F 57% 29.79 in 10.0 mi SW 15.0 mph 19.6 mph N/A   Clear
2:15 PM 73.9 °F 57.6 °F 56% 29.78 in 10.0 mi SW 16.1 mph 24.2 mph N/A   Clear
2:16 PM 73.8 °F 57.4 °F 56% 29.78 in 10.0 mi SW 16.1 mph 24.2 mph N/A   Clear
2:35 PM 74.3 °F 59.2 °F 59% 29.77 in 10.0 mi SSW 16.1 mph 24.2 mph N/A   Scattered Clouds
2:37 PM 73.9 °F 59.0 °F 59% 29.77 in 10.0 mi SSW 16.1 mph 24.2 mph N/A   Scattered Clouds
2:55 PM 73.6 °F 59.4 °F 61% 29.76 in 10.0 mi SSW 17.3 mph 23.0 mph N/A   Scattered Clouds
2:56 PM 73.6 °F 59.2 °F 61% 29.76 in 10.0 mi SSW 16.1 mph 23.0 mph N/A   Scattered Clouds
3:15 PM 75.6 °F 60.8 °F 60% 29.76 in 10.0 mi SSW 19.6 mph 26.5 mph N/A   Clear
3:16 PM 75.6 °F 60.8 °F 60% 29.76 in 10.0 mi SSW 19.6 mph 26.5 mph N/A   Clear
3:35 PM 75.4 °F 60.8 °F 60% 29.76 in 10.0 mi SSW 17.3 mph 26.5 mph N/A   Clear
3:36 PM 75.6 °F 61.0 °F 60% 29.76 in 10.0 mi SSW 16.1 mph 26.5 mph N/A   Clear
3:55 PM 75.7 °F 60.3 °F 59% 29.75 in 10.0 mi SSW 21.9 mph 28.8 mph N/A   Clear
3:56 PM 75.7 °F 60.1 °F 58% 29.76 in 10.0 mi SSW 19.6 mph 28.8 mph N/A   Clear
4:16 PM 75.7 °F 59.7 °F 57% 29.75 in 10.0 mi SSW 18.4 mph 29.9 mph N/A   Clear
4:35 PM 74.3 °F 58.8 °F 58% 29.74 in 10.0 mi SSW 17.3 mph 28.8 mph N/A   Clear
4:36 PM 74.3 °F 58.8 °F 58% 29.74 in 10.0 mi SSW 16.1 mph 28.8 mph N/A   Clear
4:56 PM 75.4 °F 58.1 °F 55% 29.74 in 10.0 mi SSW 20.7 mph 28.8 mph N/A   Clear
5:15 PM 75.9 °F 57.4 °F 52% 29.73 in 10.0 mi SSW 18.4 mph 28.8 mph N/A   Clear
5:16 PM 75.9 °F 57.4 °F 52% 29.73 in 10.0 mi SSW 18.4 mph 28.8 mph N/A   Clear
5:35 PM 75.6 °F 57.4 °F 53% 29.72 in 10.0 mi SSW 17.3 mph 28.8 mph N/A   Clear
5:37 PM 75.6 °F 57.4 °F 53% 29.72 in 10.0 mi SSW 21.9 mph 28.8 mph N/A   Clear
5:55 PM 75.6 °F 57.4 °F 53% 29.71 in 10.0 mi SSW 18.4 mph 28.8 mph N/A   Clear
5:56 PM 75.4 °F 57.4 °F 53% 29.71 in 10.0 mi SSW 18.4 mph 28.8 mph N/A   Clear
6:15 PM 75.4 °F 57.7 °F 54% 29.70 in 10.0 mi SSW 17.3 mph 23.0 mph N/A   Clear
6:35 PM 74.5 °F 57.2 °F 55% 29.71 in 10.0 mi SSW 16.1 mph 24.2 mph N/A   Clear
6:36 PM 74.5 °F 57.2 °F 55% 29.71 in 10.0 mi SSW 17.3 mph 24.2 mph N/A   Clear
6:55 PM 73.0 °F 56.5 °F 56% 29.71 in 10.0 mi SSW 16.1 mph 24.2 mph N/A   Clear
6:57 PM 72.7 °F 56.5 °F 57% 29.70 in 10.0 mi SSW 17.3 mph 24.2 mph N/A   Clear
7:16 PM 72.0 °F 55.9 °F 57% 29.70 in 10.0 mi SSW 13.8 mph 20.7 mph N/A   Clear
7:35 PM 70.9 °F 55.6 °F 58% 29.70 in 10.0 mi SSW 10.4 mph 17.3 mph N/A   Clear
7:56 PM 68.9 °F 54.5 °F 60% 29.70 in 10.0 mi SW 12.7 mph 18.4 mph N/A   Clear
8:15 PM 68.2 °F 53.2 °F 59% 29.70 in 10.0 mi SW 11.5 mph 18.4 mph N/A   Clear
8:16 PM 68.2 °F 53.2 °F 59% 29.70 in 10.0 mi SW 11.5 mph 18.4 mph N/A   Clear
8:35 PM 61.9 °F 50.9 °F 67% 29.76 in 10.0 mi NW 8.1 mph 21.9 mph N/A   Scattered Clouds
8:37 PM 61.5 °F 50.9 °F 68% 29.75 in 10.0 mi Calm Calm - N/A   Scattered Clouds
8:55 PM 59.7 °F 52.7 °F 78% 29.71 in 7.0 mi South 6.9 mph - 0.01 in Rain Light Rain
8:56 PM 59.9 °F 52.7 °F 77% 29.71 in 7.0 mi South 6.9 mph - 0.01 in Rain Light Rain
9:15 PM 61.2 °F 53.1 °F 75% 29.70 in 10.0 mi SSW 5.8 mph - N/A   Mostly Cloudy
9:36 PM 59.5 °F 53.1 °F 79% 29.79 in 10.0 mi NW 9.2 mph 19.6 mph N/A   Mostly Cloudy
9:55 PM 57.9 °F 53.6 °F 86% 29.76 in 7.0 mi ESE 4.6 mph - 0.01 in Rain Light Rain
9:56 PM 57.9 °F 53.8 °F 86% 29.76 in 7.0 mi SE 4.6 mph - 0.01 in Rain Light Rain
10:16 PM 59.5 °F 54.7 °F 84% 29.76 in 10.0 mi SSE 3.5 mph - N/A   Scattered Clouds
10:35 PM 59.9 °F 55.0 °F 84% 29.76 in 10.0 mi South 3.5 mph - N/A Rain Light Rain
10:36 PM 60.1 °F 55.0 °F 83% 29.76 in 10.0 mi South 3.5 mph - N/A Rain Light Rain
10:55 PM 61.2 °F 55.4 °F 81% 29.78 in 10.0 mi SW 6.9 mph - N/A   Mostly Cloudy
11:15 PM 61.3 °F 56.1 °F 83% 29.76 in 10.0 mi South 3.5 mph - 0.01 in Rain Light Rain
11:35 PM 59.9 °F 56.5 °F 88% 29.75 in 10.0 mi Calm Calm - 0.01 in   Mostly Cloudy
11:37 PM 59.9 °F 56.5 °F 88% 29.75 in 10.0 mi Calm Calm - 0.01 in   Scattered Clouds
11:55 PM 59.0 °F 57.4 °F 94% 29.74 in 7.0 mi Calm Calm - 0.01 in   Scattered Clouds
11:56 PM 59.0 °F 57.4 °F 94% 29.74 in 7.0 mi Calm Calm - 0.01 in   Scattered Clouds